Location: Castillon
(43.0896°N, 0.2156°E)
Time: 01:07:06
(UTC+00:00)

Okean 1 Rocket - Visible Passes

Search period start: 24 October 2021 00:00
Search period end: 03 November 2021 00:00
Orbit: 606 x 635 km, 82.5° (Epoch: 23 October)

Date Brightness Start Highest point End Pass type
(mag) Time Alt. Az. Time Alt. Az. Time Alt. Az.
24 Oct 4.9 03:36:20 26° ESE 03:36:20 26° ESE 03:38:39 10° SE visible
24 Oct 4.7 05:13:48 17° WSW 05:13:48 17° WSW 05:15:24 10° SW visible
24 Oct 5.1 17:40:50 10° SW 17:44:43 32° WNW 17:48:38 10° N visible
25 Oct 5.9 17:59:42 10° WSW 18:02:41 18° WNW 18:05:42 10° NNW visible
29 Oct 5.9 17:33:08 10° WSW 17:35:56 17° WNW 17:38:45 10° NNW visible
